Time,TemperatureF,DewpointF,PressureIn,WindDirection,WindDirectionDegrees,WindSpeedMPH,WindSpeedGustMPH,Humidity,HourlyPrecipIn,Conditions,Clouds,dailyrainin,SoftwareType,DateUTC
2013-05-20 00:00:00,55.3,53.9,30.24,ESE,122,0.0,1.0,95,0.00,,,0.00,Wunderground v.1.15,2013-05-20 04:00:00,
2013-05-20 00:05:00,55.3,54.2,30.23,ESE,120,0.0,1.0,96,0.00,,,0.00,Wunderground v.1.15,2013-05-20 04:05:00,
2013-05-20 00:10:00,55.3,54.2,30.23,South,174,0.0,1.0,96,0.00,,,0.00,Wunderground v.1.15,2013-05-20 04:10:00,
2013-05-20 00:15:00,55.3,54.2,30.22,SE,131,0.0,1.0,96,0.00,,,0.00,Wunderground v.1.15,2013-05-20 04:15:00,
2013-05-20 00:20:00,55.3,54.2,30.22,SE,131,0.0,1.0,96,0.00,,,0.00,Wunderground v.1.15,2013-05-20 04:20:00,
2013-05-20 00:25:00,55.3,54.2,30.22,SSW,208,0.0,1.0,96,0.00,,,0.00,Wunderground v.1.15,2013-05-20 04:25:00,
2013-05-20 00:30:00,55.3,54.2,30.22,ESE,108,0.0,1.0,96,0.00,,,0.00,Wunderground v.1.15,2013-05-20 04:30:00,
2013-05-20 00:35:00,55.3,54.2,30.22,ESE,110,0.0,1.0,96,0.00,,,0.00,Wunderground v.1.15,2013-05-20 04:35:00,
2013-05-20 00:40:00,55.3,54.2,30.22,SE,139,0.0,1.0,96,0.00,,,0.00,Wunderground v.1.15,2013-05-20 04:40:00,
2013-05-20 00:45:00,55.3,54.2,30.21,SE,139,0.0,1.0,96,0.00,,,0.00,Wunderground v.1.15,2013-05-20 04:45:00,
2013-05-20 00:50:00,55.3,54.2,30.21,SE,139,0.0,1.0,96,0.00,,,0.01,Wunderground v.1.15,2013-05-20 04:50:00,
2013-05-20 00:55:00,55.3,54.2,30.20,SE,125,0.0,1.0,96,0.00,,,0.01,Wunderground v.1.15,2013-05-20 04:55:00,
2013-05-20 01:00:00,55.3,54.2,30.20,SE,125,0.0,1.0,96,0.00,,,0.01,Wunderground v.1.15,2013-05-20 05:00:00,
2013-05-20 01:10:00,55.3,54.2,30.20,ESE,117,0.0,1.0,96,0.00,,,0.01,Wunderground v.1.15,2013-05-20 05:10:00,
2013-05-20 01:15:00,55.3,54.2,30.20,ESE,117,0.0,1.0,96,0.00,,,0.01,Wunderground v.1.15,2013-05-20 05:15:00,
2013-05-20 01:20:00,55.4,54.3,30.19,ESE,117,0.0,1.0,96,0.00,,,0.01,Wunderground v.1.15,2013-05-20 05:20:00,
2013-05-20 01:25:00,55.4,54.3,30.19,ESE,117,0.0,1.0,96,0.00,,,0.01,Wunderground v.1.15,2013-05-20 05:25:00,
2013-05-20 01:30:00,55.4,54.3,30.19,ESE,117,0.0,1.0,96,0.00,,,0.01,Wunderground v.1.15,2013-05-20 05:30:00,
2013-05-20 01:35:00,55.4,54.3,30.18,SE,131,0.0,1.0,96,0.00,,,0.01,Wunderground v.1.15,2013-05-20 05:35:00,
2013-05-20 01:45:00,55.4,54.3,30.18,SE,139,0.0,1.0,96,0.00,,,0.01,Wunderground v.1.15,2013-05-20 05:45:00,
2013-05-20 01:50:00,55.4,54.3,30.18,SE,140,0.0,1.0,96,0.00,,,0.01,Wunderground v.1.15,2013-05-20 05:50:00,
2013-05-20 01:55:00,55.4,54.3,30.17,SE,142,0.0,1.0,96,0.00,,,0.01,Wunderground v.1.15,2013-05-20 05:55:00,
2013-05-20 02:00:00,55.4,54.3,30.17,SE,143,0.0,1.0,96,0.00,,,0.01,Wunderground v.1.15,2013-05-20 06:00:00,
2013-05-20 02:05:00,55.4,54.3,30.17,SE,143,0.0,1.0,96,0.00,,,0.02,Wunderground v.1.15,2013-05-20 06:05:00,
2013-05-20 02:15:00,55.4,54.3,30.16,SSW,197,0.0,1.0,96,0.00,,,0.02,Wunderground v.1.15,2013-05-20 06:15:00,
2013-05-20 02:20:00,55.4,54.3,30.16,SE,137,0.0,1.0,96,0.00,,,0.02,Wunderground v.1.15,2013-05-20 06:20:00,
2013-05-20 02:25:00,55.4,54.3,30.16,SE,136,0.0,1.0,96,0.00,,,0.02,Wunderground v.1.15,2013-05-20 06:25:00,
2013-05-20 02:30:00,55.5,54.4,30.16,SE,137,0.0,1.0,96,0.00,,,0.02,Wunderground v.1.15,2013-05-20 06:30:00,
2013-05-20 02:35:00,55.5,54.4,30.16,SE,136,0.0,1.0,96,0.00,,,0.02,Wunderground v.1.15,2013-05-20 06:35:00,
2013-05-20 02:40:00,55.5,54.4,30.15,SE,137,0.0,1.0,96,0.00,,,0.02,Wunderground v.1.15,2013-05-20 06:40:00,
2013-05-20 02:50:00,55.6,54.5,30.15,South,180,0.0,1.0,96,0.00,,,0.02,Wunderground v.1.15,2013-05-20 06:50:00,
2013-05-20 02:55:00,55.7,54.6,30.14,SSE,153,0.0,1.0,96,0.00,,,0.02,Wunderground v.1.15,2013-05-20 06:55:00,
2013-05-20 03:00:00,55.7,54.6,30.15,SSE,153,0.0,1.0,96,0.00,,,0.02,Wunderground v.1.15,2013-05-20 07:00:00,
2013-05-20 03:10:00,55.8,54.7,30.14,SE,139,0.0,1.0,96,0.00,,,0.02,Wunderground v.1.15,2013-05-20 07:10:00,
2013-05-20 03:15:00,55.8,54.7,30.14,SSE,153,0.0,1.0,96,0.00,,,0.02,Wunderground v.1.15,2013-05-20 07:15:00,
2013-05-20 03:20:00,55.9,54.8,30.13,SW,224,0.0,1.0,96,0.00,,,0.02,Wunderground v.1.15,2013-05-20 07:20:00,
2013-05-20 03:25:00,55.9,54.8,30.13,SSW,203,0.0,1.0,96,0.00,,,0.02,Wunderground v.1.15,2013-05-20 07:25:00,
2013-05-20 03:35:00,55.9,54.8,30.12,SSE,155,0.0,1.0,96,0.00,,,0.03,Wunderground v.1.15,2013-05-20 07:35:00,
2013-05-20 03:40:00,56.0,54.9,30.12,SSE,155,0.0,1.0,96,0.00,,,0.03,Wunderground v.1.15,2013-05-20 07:40:00,
2013-05-20 03:50:00,56.1,55.0,30.11,SSE,155,0.0,1.0,96,0.00,,,0.03,Wunderground v.1.15,2013-05-20 07:50:00,
2013-05-20 03:55:00,56.1,55.0,30.11,SSE,155,0.0,1.0,96,0.00,,,0.03,Wunderground v.1.15,2013-05-20 07:55:00,
2013-05-20 04:00:00,56.1,55.0,30.12,SSE,155,0.0,1.0,96,0.00,,,0.03,Wunderground v.1.15,2013-05-20 08:00:00,
2013-05-20 04:05:00,56.2,55.1,30.12,NNW,330,0.0,1.0,96,0.00,,,0.03,Wunderground v.1.15,2013-05-20 08:05:00,
2013-05-20 04:15:00,56.3,55.2,30.11,NNW,330,0.0,1.0,96,0.00,,,0.03,Wunderground v.1.15,2013-05-20 08:15:00,
2013-05-20 04:20:00,56.3,55.2,30.12,NNW,330,0.0,1.0,96,0.00,,,0.03,Wunderground v.1.15,2013-05-20 08:20:00,
2013-05-20 04:25:00,56.3,55.2,30.11,NNW,330,0.0,1.0,96,0.00,,,0.03,Wunderground v.1.15,2013-05-20 08:25:00,
2013-05-20 04:30:00,56.3,55.2,30.11,NNW,330,0.0,1.0,96,0.00,,,0.03,Wunderground v.1.15,2013-05-20 08:30:00,
2013-05-20 04:40:00,56.4,55.3,30.11,NNW,330,0.0,1.0,96,0.00,,,0.03,Wunderground v.1.15,2013-05-20 08:40:00,
2013-05-20 04:45:00,56.5,55.4,30.11,NNW,330,0.0,1.0,96,0.00,,,0.03,Wunderground v.1.15,2013-05-20 08:45:00,
2013-05-20 04:55:00,56.5,55.4,30.09,SSW,208,0.0,1.0,96,0.00,,,0.03,Wunderground v.1.15,2013-05-20 08:55:00,
2013-05-20 05:05:00,56.4,55.3,30.09,SSW,209,0.0,1.0,96,0.00,,,0.03,Wunderground v.1.15,2013-05-20 09:05:00,
2013-05-20 05:10:00,56.5,55.4,30.09,SSW,208,0.0,1.0,96,0.00,,,0.03,Wunderground v.1.15,2013-05-20 09:10:00,
2013-05-20 05:15:00,56.5,55.4,30.09,SSW,208,0.0,1.0,96,0.00,,,0.03,Wunderground v.1.15,2013-05-20 09:15:00,
2013-05-20 05:25:00,56.5,55.4,30.08,SSW,208,0.0,1.0,96,0.00,,,0.03,Wunderground v.1.15,2013-05-20 09:25:00,
2013-05-20 05:30:00,56.6,55.5,30.09,SSW,208,0.0,1.0,96,0.00,,,0.03,Wunderground v.1.15,2013-05-20 09:30:00,
2013-05-20 05:35:00,56.5,55.4,30.08,SSE,155,0.0,1.0,96,0.00,,,0.03,Wunderground v.1.15,2013-05-20 09:35:00,
2013-05-20 05:40:00,56.5,55.4,30.08,SSE,155,0.0,1.0,96,0.00,,,0.03,Wunderground v.1.15,2013-05-20 09:40:00,
2013-05-20 05:50:00,56.6,55.5,30.08,SSE,151,0.0,1.0,96,0.00,,,0.03,Wunderground v.1.15,2013-05-20 09:50:00,
2013-05-20 05:55:00,56.6,55.8,30.08,SSE,151,0.0,1.0,97,0.00,,,0.03,Wunderground v.1.15,2013-05-20 09:55:00,
2013-05-20 06:05:00,56.8,56.0,30.08,NE,43,0.0,1.0,97,0.00,,,0.03,Wunderground v.1.15,2013-05-20 10:05:00,
2013-05-20 06:10:00,56.9,56.1,30.08,East,97,0.0,1.0,97,0.00,,,0.03,Wunderground v.1.15,2013-05-20 10:10:00,
2013-05-20 06:15:00,56.9,56.1,30.08,East,97,0.0,1.0,97,0.00,,,0.03,Wunderground v.1.15,2013-05-20 10:15:00,
2013-05-20 06:25:00,57.1,56.3,30.08,West,259,0.0,1.0,97,0.00,,,0.03,Wunderground v.1.15,2013-05-20 10:25:00,
2013-05-20 06:30:00,57.2,56.4,30.08,SSW,206,0.0,1.0,97,0.00,,,0.03,Wunderground v.1.15,2013-05-20 10:30:00,
2013-05-20 06:35:00,57.3,56.5,30.08,SSE,155,0.0,1.0,97,0.00,,,0.03,Wunderground v.1.15,2013-05-20 10:35:00,
2013-05-20 06:40:00,57.4,56.6,30.08,SSE,155,0.0,1.0,97,0.00,,,0.03,Wunderground v.1.15,2013-05-20 10:40:00,
2013-05-20 06:50:00,57.6,56.8,30.08,SSE,161,0.0,1.0,97,0.00,,,0.03,Wunderground v.1.15,2013-05-20 10:50:00,
2013-05-20 06:55:00,57.7,56.9,30.08,SE,146,0.0,1.0,97,0.00,,,0.03,Wunderground v.1.15,2013-05-20 10:55:00,
2013-05-20 07:00:00,57.9,57.1,30.08,WNW,283,0.0,1.0,97,0.00,,,0.03,Wunderground v.1.15,2013-05-20 11:00:00,
2013-05-20 07:05:00,57.9,57.1,30.07,SE,136,0.0,1.0,97,0.00,,,0.03,Wunderground v.1.15,2013-05-20 11:05:00,
2013-05-20 07:15:00,58.0,57.2,30.08,South,188,0.0,1.0,97,0.00,,,0.03,Wunderground v.1.15,2013-05-20 11:15:00,
2013-05-20 07:20:00,58.2,57.4,30.08,South,184,0.0,1.0,97,0.00,,,0.03,Wunderground v.1.15,2013-05-20 11:20:00,
2013-05-20 07:30:00,58.4,57.3,30.08,NW,321,1.0,1.0,96,0.00,,,0.03,Wunderground v.1.15,2013-05-20 11:30:00,
2013-05-20 07:35:00,58.5,57.4,30.08,West,276,1.0,1.0,96,0.00,,,0.03,Wunderground v.1.15,2013-05-20 11:35:00,
2013-05-20 07:40:00,58.7,57.6,30.08,SW,232,0.0,1.0,96,0.00,,,0.03,Wunderground v.1.15,2013-05-20 11:40:00,
2013-05-20 07:45:00,58.8,57.7,30.08,WSW,245,0.0,1.0,96,0.00,,,0.03,Wunderground v.1.15,2013-05-20 11:45:00,
2013-05-20 07:50:00,59.0,57.9,30.07,WSW,240,0.0,1.0,96,0.00,,,0.03,Wunderground v.1.15,2013-05-20 11:50:00,
2013-05-20 08:00:00,59.5,58.4,30.07,ESE,107,0.0,1.0,96,0.00,,,0.03,Wunderground v.1.15,2013-05-20 12:00:00,
2013-05-20 08:05:00,59.7,58.6,30.07,East,84,1.0,1.0,96,0.00,,,0.03,Wunderground v.1.15,2013-05-20 12:05:00,
2013-05-20 08:15:00,60.2,58.8,30.07,WSW,253,0.0,1.0,95,0.00,,,0.03,Wunderground v.1.15,2013-05-20 12:15:00,
2013-05-20 08:20:00,60.4,59.0,30.07,West,259,1.0,2.0,95,0.00,,,0.03,Wunderground v.1.15,2013-05-20 12:20:00,
2013-05-20 08:30:00,60.6,58.6,30.08,West,259,1.0,1.0,93,0.00,,,0.03,Wunderground v.1.15,2013-05-20 12:30:00,
2013-05-20 08:35:00,60.8,58.8,30.08,SSW,212,0.0,1.0,93,0.00,,,0.03,Wunderground v.1.15,2013-05-20 12:35:00,
2013-05-20 08:40:00,61.1,59.1,30.07,ENE,58,0.0,1.0,93,0.00,,,0.03,Wunderground v.1.15,2013-05-20 12:40:00,
2013-05-20 08:45:00,61.3,59.0,30.08,WNW,290,1.0,1.0,92,0.00,,,0.03,Wunderground v.1.15,2013-05-20 12:45:00,
2013-05-20 08:50:00,61.7,59.7,30.07,WNW,287,1.0,1.0,93,0.00,,,0.03,Wunderground v.1.15,2013-05-20 12:50:00,
2013-05-20 09:00:00,62.2,59.5,30.07,NE,34,1.0,1.0,91,0.00,,,0.03,Wunderground v.1.15,2013-05-20 13:00:00,
2013-05-20 09:05:00,62.6,59.6,30.07,NW,316,1.0,1.0,90,0.00,,,0.03,Wunderground v.1.15,2013-05-20 13:05:00,
2013-05-20 09:15:00,63.7,60.1,30.06,West,269,1.0,2.0,88,0.00,,,0.03,Wunderground v.1.15,2013-05-20 13:15:00,
2013-05-20 09:20:00,64.3,60.3,30.06,SSW,212,1.0,4.0,87,0.00,,,0.03,Wunderground v.1.15,2013-05-20 13:20:00,
2013-05-20 09:25:00,64.5,60.2,30.06,West,261,1.0,4.0,86,0.00,,,0.03,Wunderground v.1.15,2013-05-20 13:25:00,
2013-05-20 09:30:00,64.5,60.2,30.06,WSW,246,1.0,2.0,86,0.00,,,0.03,Wunderground v.1.15,2013-05-20 13:30:00,
2013-05-20 09:40:00,64.9,60.3,30.05,SE,139,1.0,1.0,85,0.00,,,0.03,Wunderground v.1.15,2013-05-20 13:40:00,
2013-05-20 09:45:00,65.4,60.8,30.05,West,281,1.0,1.0,85,0.00,,,0.03,Wunderground v.1.15,2013-05-20 13:45:00,
2013-05-20 09:50:00,65.9,60.9,30.05,NW,314,1.0,1.0,84,0.00,,,0.03,Wunderground v.1.15,2013-05-20 13:50:00,
2013-05-20 09:55:00,66.4,61.4,30.05,West,278,1.0,1.0,84,0.00,,,0.03,Wunderground v.1.15,2013-05-20 13:55:00,
2013-05-20 10:05:00,67.1,61.1,30.04,NW,311,1.0,2.0,81,0.00,,,0.03,Wunderground v.1.15,2013-05-20 14:05:00,
2013-05-20 10:15:00,68.3,61.9,30.04,SW,232,2.0,2.0,80,0.00,,,0.03,Wunderground v.1.15,2013-05-20 14:15:00,
2013-05-20 10:20:00,68.6,61.8,30.04,SSW,210,2.0,2.0,79,0.00,,,0.03,Wunderground v.1.15,2013-05-20 14:20:00,
2013-05-20 10:25:00,69.1,61.9,30.04,West,264,2.0,2.0,78,0.00,,,0.03,Wunderground v.1.15,2013-05-20 14:25:00,
2013-05-20 10:30:00,69.4,61.9,30.04,SSW,200,2.0,2.0,77,0.00,,,0.03,Wunderground v.1.15,2013-05-20 14:30:00,
2013-05-20 10:35:00,69.9,62.0,30.04,WSW,246,2.0,3.0,76,0.00,,,0.03,Wunderground v.1.15,2013-05-20 14:35:00,
2013-05-20 10:40:00,70.3,62.4,30.04,West,271,2.0,2.0,76,0.00,,,0.03,Wunderground v.1.15,2013-05-20 14:40:00,
2013-05-20 10:45:00,70.5,61.8,30.04,WSW,252,2.0,3.0,74,0.00,,,0.03,Wunderground v.1.15,2013-05-20 14:45:00,
2013-05-20 10:50:00,71.0,63.1,30.03,NNW,331,2.0,2.0,76,0.00,,,0.03,Wunderground v.1.15,2013-05-20 14:50:00,
2013-05-20 11:00:00,72.2,63.1,30.03,NNE,17,1.0,1.0,73,0.00,,,0.03,Wunderground v.1.15,2013-05-20 15:00:00,
2013-05-20 11:05:00,72.3,62.0,30.03,SSW,212,2.0,5.0,70,0.00,,,0.03,Wunderground v.1.15,2013-05-20 15:05:00,
2013-05-20 11:10:00,72.3,62.8,30.03,SW,215,3.0,3.0,72,0.00,,,0.03,Wunderground v.1.15,2013-05-20 15:10:00,
2013-05-20 11:15:00,72.4,62.1,30.03,West,280,2.0,3.0,70,0.00,,,0.03,Wunderground v.1.15,2013-05-20 15:15:00,
2013-05-20 11:20:00,72.7,61.9,30.03,WSW,250,3.0,3.0,69,0.00,,,0.03,Wunderground v.1.15,2013-05-20 15:20:00,
2013-05-20 11:25:00,72.9,61.7,30.03,NW,316,3.0,3.0,68,0.00,,,0.03,Wunderground v.1.15,2013-05-20 15:25:00,
2013-05-20 11:30:00,73.0,61.4,30.03,WNW,291,3.0,5.0,67,0.00,,,0.03,Wunderground v.1.15,2013-05-20 15:30:00,
2013-05-20 11:35:00,72.9,61.3,30.02,WSW,243,3.0,5.0,67,0.00,,,0.03,Wunderground v.1.15,2013-05-20 15:35:00,
2013-05-20 11:40:00,73.0,61.4,30.02,West,270,2.0,2.0,67,0.00,,,0.03,Wunderground v.1.15,2013-05-20 15:40:00,
2013-05-20 11:45:00,72.9,61.7,30.01,West,271,3.0,3.0,68,0.00,,,0.03,Wunderground v.1.15,2013-05-20 15:45:00,
2013-05-20 11:50:00,73.1,61.9,30.01,ESE,107,3.0,3.0,68,0.00,,,0.03,Wunderground v.1.15,2013-05-20 15:50:00,
2013-05-20 11:55:00,73.4,61.8,30.01,WNW,296,3.0,3.0,67,0.00,,,0.03,Wunderground v.1.15,2013-05-20 15:55:00,
2013-05-20 12:05:00,73.9,62.7,30.01,WSW,256,2.0,3.0,68,0.00,,,0.03,Wunderground v.1.15,2013-05-20 16:05:00,
2013-05-20 12:10:00,74.3,62.2,30.01,NNW,346,1.0,1.0,66,0.00,,,0.03,Wunderground v.1.15,2013-05-20 16:10:00,
2013-05-20 12:15:00,74.2,61.7,30.01,West,266,0.0,1.0,65,0.00,,,0.03,Wunderground v.1.15,2013-05-20 16:15:00,
2013-05-20 12:25:00,74.9,62.3,30.01,NW,316,1.0,2.0,65,0.00,,,0.03,Wunderground v.1.15,2013-05-20 16:25:00,
2013-05-20 12:35:00,75.4,62.8,30.01,North,356,2.0,4.0,65,0.00,,,0.03,Wunderground v.1.15,2013-05-20 16:35:00,
2013-05-20 12:40:00,75.9,63.3,30.00,West,273,2.0,2.0,65,0.00,,,0.03,Wunderground v.1.15,2013-05-20 16:40:00,
2013-05-20 12:45:00,76.1,61.7,30.01,West,266,2.0,2.0,61,0.00,,,0.03,Wunderground v.1.15,2013-05-20 16:45:00,
2013-05-20 12:55:00,76.1,62.1,30.00,WSW,252,2.0,3.0,62,0.00,,,0.03,Wunderground v.1.15,2013-05-20 16:55:00,
2013-05-20 13:00:00,76.1,61.7,30.00,WSW,246,3.0,3.0,61,0.00,,,0.03,Wunderground v.1.15,2013-05-20 17:00:00,
2013-05-20 13:10:00,76.1,61.7,30.00,NW,314,2.0,2.0,61,0.00,,,0.03,Wunderground v.1.15,2013-05-20 17:10:00,
2013-05-20 13:15:00,76.1,62.1,30.00,WSW,240,2.0,3.0,62,0.00,,,0.03,Wunderground v.1.15,2013-05-20 17:15:00,
2013-05-20 13:25:00,76.6,64.4,29.99,West,264,2.0,3.0,66,0.00,,,0.03,Wunderground v.1.15,2013-05-20 17:25:00,
2013-05-20 13:30:00,77.0,62.0,29.98,NW,326,2.0,2.0,60,0.00,,,0.03,Wunderground v.1.15,2013-05-20 17:30:00,
2013-05-20 13:40:00,77.3,61.9,29.98,West,270,2.0,2.0,59,0.00,,,0.03,Wunderground v.1.15,2013-05-20 17:40:00,
2013-05-20 13:45:00,77.8,63.7,29.98,South,173,2.0,3.0,62,0.00,,,0.03,Wunderground v.1.15,2013-05-20 17:45:00,
2013-05-20 13:50:00,78.5,63.0,29.97,West,264,1.0,3.0,59,0.00,,,0.03,Wunderground v.1.15,2013-05-20 17:50:00,
2013-05-20 13:55:00,78.6,63.6,29.97,NNW,333,1.0,4.0,60,0.00,,,0.03,Wunderground v.1.15,2013-05-20 17:55:00,
2013-05-20 14:00:00,78.3,62.8,29.97,NE,55,2.0,2.0,59,0.00,,,0.03,Wunderground v.1.15,2013-05-20 18:00:00,
2013-05-20 14:10:00,78.6,63.1,29.97,ESE,113,2.0,4.0,59,0.00,,,0.03,Wunderground v.1.15,2013-05-20 18:10:00,
2013-05-20 14:15:00,78.5,62.5,29.96,West,266,2.0,4.0,58,0.00,,,0.03,Wunderground v.1.15,2013-05-20 18:15:00,
2013-05-20 14:20:00,78.4,63.4,29.96,WNW,290,3.0,3.0,60,0.00,,,0.03,Wunderground v.1.15,2013-05-20 18:20:00,
2013-05-20 14:25:00,78.9,63.8,29.96,West,267,2.0,3.0,60,0.00,,,0.03,Wunderground v.1.15,2013-05-20 18:25:00,
2013-05-20 14:30:00,79.2,63.1,29.96,West,266,2.0,3.0,58,0.00,,,0.03,Wunderground v.1.15,2013-05-20 18:30:00,
2013-05-20 14:40:00,79.8,63.7,29.96,WSW,246,1.0,2.0,58,0.00,,,0.03,Wunderground v.1.15,2013-05-20 18:40:00,
2013-05-20 14:45:00,80.0,63.4,29.95,SSW,200,1.0,2.0,57,0.00,,,0.03,Wunderground v.1.15,2013-05-20 18:45:00,
2013-05-20 14:50:00,80.3,63.7,29.96,North,359,2.0,2.0,57,0.00,,,0.03,Wunderground v.1.15,2013-05-20 18:50:00,
2013-05-20 14:55:00,80.7,64.1,29.96,SW,236,1.0,2.0,57,0.00,,,0.03,Wunderground v.1.15,2013-05-20 18:55:00,
2013-05-20 15:00:00,80.8,63.6,29.96,NNW,332,1.0,1.0,56,0.00,,,0.03,Wunderground v.1.15,2013-05-20 19:00:00,
2013-05-20 15:05:00,81.0,63.8,29.96,NNE,31,2.0,2.0,56,0.00,,,0.03,Wunderground v.1.15,2013-05-20 19:05:00,
2013-05-20 15:15:00,80.9,63.2,29.96,North,360,3.0,3.0,55,0.00,,,0.03,Wunderground v.1.15,2013-05-20 19:15:00,
2013-05-20 15:20:00,80.3,63.7,29.96,SSE,151,3.0,3.0,57,0.00,,,0.03,Wunderground v.1.15,2013-05-20 19:20:00,
2013-05-20 15:25:00,80.0,63.9,29.96,West,277,2.0,4.0,58,0.00,,,0.03,Wunderground v.1.15,2013-05-20 19:25:00,
2013-05-20 15:30:00,79.7,63.6,29.96,West,269,2.0,2.0,58,0.00,,,0.03,Wunderground v.1.15,2013-05-20 19:30:00,
2013-05-20 15:40:00,80.3,63.7,29.96,NW,308,2.0,2.0,57,0.00,,,0.03,Wunderground v.1.15,2013-05-20 19:40:00,
2013-05-20 15:50:00,80.1,63.0,29.95,WSW,253,2.0,2.0,56,0.00,,,0.03,Wunderground v.1.15,2013-05-20 19:50:00,
2013-05-20 16:00:00,79.7,63.6,29.95,West,271,1.0,1.0,58,0.00,,,0.03,Wunderground v.1.15,2013-05-20 20:00:00,
2013-05-20 16:05:00,80.2,64.1,29.94,NE,53,1.0,3.0,58,0.00,,,0.03,Wunderground v.1.15,2013-05-20 20:05:00,
2013-05-20 16:10:00,80.3,63.2,29.94,WNW,285,2.0,2.0,56,0.00,,,0.03,Wunderground v.1.15,2013-05-20 20:10:00,
2013-05-20 16:20:00,81.0,63.8,29.94,NW,316,1.0,2.0,56,0.00,,,0.03,Wunderground v.1.15,2013-05-20 20:20:00,
2013-05-20 16:25:00,81.5,64.3,29.93,NNE,17,1.0,2.0,56,0.00,,,0.03,Wunderground v.1.15,2013-05-20 20:25:00,
2013-05-20 16:30:00,81.6,63.9,29.93,South,169,2.0,2.0,55,0.00,,,0.03,Wunderground v.1.15,2013-05-20 20:30:00,
2013-05-20 16:35:00,81.4,63.2,29.93,NW,319,2.0,2.0,54,0.00,,,0.03,Wunderground v.1.15,2013-05-20 20:35:00,
2013-05-20 16:40:00,81.5,63.3,29.93,SSE,152,2.0,2.0,54,0.00,,,0.03,Wunderground v.1.15,2013-05-20 20:40:00,
2013-05-20 16:50:00,82.0,63.7,29.93,North,356,2.0,3.0,54,0.00,,,0.03,Wunderground v.1.15,2013-05-20 20:50:00,
2013-05-20 16:55:00,81.8,64.1,29.93,West,278,2.0,3.0,55,0.00,,,0.03,Wunderground v.1.15,2013-05-20 20:55:00,
2013-05-20 17:00:00,81.3,63.1,29.93,North,352,2.0,2.0,54,0.00,,,0.03,Wunderground v.1.15,2013-05-20 21:00:00,
2013-05-20 17:05:00,81.1,63.9,29.93,West,271,2.0,2.0,56,0.00,,,0.03,Wunderground v.1.15,2013-05-20 21:05:00,
2013-05-20 17:10:00,81.1,63.9,29.93,West,277,1.0,1.0,56,0.00,,,0.03,Wunderground v.1.15,2013-05-20 21:10:00,
2013-05-20 17:20:00,81.7,64.0,29.93,West,266,2.0,2.0,55,0.00,,,0.03,Wunderground v.1.15,2013-05-20 21:20:00,
2013-05-20 17:25:00,81.7,63.4,29.93,NW,307,1.0,3.0,54,0.00,,,0.03,Wunderground v.1.15,2013-05-20 21:25:00,
2013-05-20 17:30:00,81.4,63.7,29.94,ENE,63,1.0,1.0,55,0.00,,,0.03,Wunderground v.1.15,2013-05-20 21:30:00,
2013-05-20 17:35:00,81.2,63.5,29.94,NW,308,2.0,2.0,55,0.00,,,0.03,Wunderground v.1.15,2013-05-20 21:35:00,
2013-05-20 17:40:00,80.9,63.2,29.94,WNW,283,2.0,2.0,55,0.00,,,0.03,Wunderground v.1.15,2013-05-20 21:40:00,
2013-05-20 17:45:00,80.6,63.5,29.94,NW,314,2.0,2.0,56,0.00,,,0.03,Wunderground v.1.15,2013-05-20 21:45:00,
2013-05-20 17:55:00,80.3,63.2,29.94,WNW,302,1.0,2.0,56,0.00,,,0.03,Wunderground v.1.15,2013-05-20 21:55:00,
2013-05-20 18:00:00,80.2,63.6,29.94,WNW,300,1.0,1.0,57,0.00,,,0.03,Wunderground v.1.15,2013-05-20 22:00:00,
2013-05-20 18:10:00,80.3,64.2,29.94,WSW,257,1.0,2.0,58,0.00,,,0.03,Wunderground v.1.15,2013-05-20 22:10:00,
2013-05-20 18:15:00,80.2,64.1,29.94,NNW,346,0.0,2.0,58,0.00,,,0.03,Wunderground v.1.15,2013-05-20 22:15:00,
2013-05-20 18:20:00,80.0,63.4,29.95,WSW,239,1.0,1.0,57,0.00,,,0.03,Wunderground v.1.15,2013-05-20 22:20:00,
2013-05-20 18:25:00,79.9,63.8,29.95,NNW,334,1.0,1.0,58,0.00,,,0.03,Wunderground v.1.15,2013-05-20 22:25:00,
2013-05-20 18:30:00,79.8,63.7,29.95,ESE,108,1.0,1.0,58,0.00,,,0.03,Wunderground v.1.15,2013-05-20 22:30:00,
2013-05-20 18:40:00,79.3,63.7,29.95,ENE,69,0.0,1.0,59,0.00,,,0.03,Wunderground v.1.15,2013-05-20 22:40:00,
2013-05-20 18:45:00,79.0,63.4,29.95,ENE,70,0.0,1.0,59,0.00,,,0.03,Wunderground v.1.15,2013-05-20 22:45:00,
2013-05-20 18:55:00,78.5,63.9,29.95,ENE,69,0.0,1.0,61,0.00,,,0.03,Wunderground v.1.15,2013-05-20 22:55:00,
2013-05-20 19:00:00,78.3,63.7,29.95,ENE,69,0.0,1.0,61,0.00,,,0.03,Wunderground v.1.15,2013-05-20 23:00:00,
2013-05-20 19:05:00,78.0,63.9,29.95,ENE,70,0.0,1.0,62,0.00,,,0.03,Wunderground v.1.15,2013-05-20 23:05:00,
2013-05-20 19:10:00,77.9,63.8,29.95,ENE,70,0.0,1.0,62,0.00,,,0.03,Wunderground v.1.15,2013-05-20 23:10:00,
2013-05-20 19:15:00,77.8,64.2,29.95,ENE,69,0.0,1.0,63,0.00,,,0.03,Wunderground v.1.15,2013-05-20 23:15:00,
2013-05-20 19:25:00,77.7,64.5,29.95,ENE,69,0.0,1.0,64,0.00,,,0.03,Wunderground v.1.15,2013-05-20 23:25:00,
2013-05-20 19:30:00,77.2,64.5,29.95,ENE,69,0.0,1.0,65,0.00,,,0.03,Wunderground v.1.15,2013-05-20 23:30:00,
2013-05-20 19:35:00,76.8,65.0,29.95,ENE,69,0.0,1.0,67,0.00,,,0.03,Wunderground v.1.15,2013-05-20 23:35:00,
2013-05-20 19:40:00,76.4,64.2,29.95,ENE,69,0.0,1.0,66,0.00,,,0.03,Wunderground v.1.15,2013-05-20 23:40:00,
2013-05-20 19:45:00,76.0,64.2,29.95,ENE,69,0.0,1.0,67,0.00,,,0.03,Wunderground v.1.15,2013-05-20 23:45:00,
2013-05-20 19:50:00,75.6,64.3,29.95,ENE,70,0.0,1.0,68,0.00,,,0.03,Wunderground v.1.15,2013-05-20 23:50:00,
2013-05-20 20:00:00,74.7,64.3,29.96,ENE,70,0.0,1.0,70,0.00,,,0.03,Wunderground v.1.15,2013-05-21 00:00:00,
2013-05-20 20:05:00,74.2,64.2,29.96,ENE,69,0.0,1.0,71,0.00,,,0.03,Wunderground v.1.15,2013-05-21 00:05:00,
2013-05-20 20:10:00,73.8,63.8,29.96,ENE,69,0.0,1.0,71,0.00,,,0.03,Wunderground v.1.15,2013-05-21 00:10:00,
2013-05-20 20:15:00,73.4,63.8,29.96,ENE,69,0.0,1.0,72,0.00,,,0.03,Wunderground v.1.15,2013-05-21 00:15:00,
2013-05-20 20:20:00,73.1,63.9,29.96,ENE,69,0.0,1.0,73,0.00,,,0.03,Wunderground v.1.15,2013-05-21 00:20:00,
2013-05-20 20:30:00,72.6,63.8,29.97,ENE,69,0.0,1.0,74,0.00,,,0.03,Wunderground v.1.15,2013-05-21 00:30:00,
2013-05-20 20:35:00,72.4,64.0,29.97,ENE,69,0.0,1.0,75,0.00,,,0.03,Wunderground v.1.15,2013-05-21 00:35:00,
2013-05-20 20:40:00,72.0,63.6,29.97,ENE,69,0.0,1.0,75,0.00,,,0.03,Wunderground v.1.15,2013-05-21 00:40:00,
2013-05-20 20:45:00,71.9,63.5,29.98,NW,311,0.0,1.0,75,0.00,,,0.03,Wunderground v.1.15,2013-05-21 00:45:00,
2013-05-20 20:50:00,71.8,63.4,29.98,NW,312,0.0,1.0,75,0.00,,,0.03,Wunderground v.1.15,2013-05-21 00:50:00,
2013-05-20 21:00:00,71.5,63.5,29.98,NW,312,0.0,1.0,76,0.00,,,0.03,Wunderground v.1.15,2013-05-21 01:00:00,
2013-05-20 21:05:00,71.3,63.0,29.98,NW,312,0.0,1.0,75,0.00,,,0.03,Wunderground v.1.15,2013-05-21 01:05:00,
2013-05-20 21:10:00,71.2,62.9,29.98,NW,311,0.0,1.0,75,0.00,,,0.03,Wunderground v.1.15,2013-05-21 01:10:00,
2013-05-20 21:15:00,71.1,62.8,29.98,NW,312,0.0,1.0,75,0.00,,,0.03,Wunderground v.1.15,2013-05-21 01:15:00,
2013-05-20 21:20:00,71.0,63.1,29.98,SSE,148,0.0,1.0,76,0.00,,,0.03,Wunderground v.1.15,2013-05-21 01:20:00,
2013-05-20 21:30:00,70.2,63.0,29.98,SSE,148,0.0,1.0,78,0.00,,,0.03,Wunderground v.1.15,2013-05-21 01:30:00,
2013-05-20 21:35:00,69.6,62.8,29.98,SSE,148,0.0,1.0,79,0.00,,,0.03,Wunderground v.1.15,2013-05-21 01:35:00,
2013-05-20 21:40:00,69.2,62.4,29.99,SSE,148,0.0,1.0,79,0.00,,,0.03,Wunderground v.1.15,2013-05-21 01:40:00,
2013-05-20 21:45:00,68.8,62.4,29.99,SSE,148,0.0,1.0,80,0.00,,,0.03,Wunderground v.1.15,2013-05-21 01:45:00,
2013-05-20 21:50:00,68.5,62.1,29.99,SSE,148,0.0,1.0,80,0.00,,,0.03,Wunderground v.1.15,2013-05-21 01:50:00,
2013-05-20 21:55:00,68.2,62.1,29.99,SSE,148,0.0,1.0,81,0.00,,,0.03,Wunderground v.1.15,2013-05-21 01:55:00,
2013-05-20 22:05:00,67.4,61.7,29.99,SSE,148,0.0,1.0,82,0.00,,,0.03,Wunderground v.1.15,2013-05-21 02:05:00,
2013-05-20 22:10:00,66.9,61.9,29.99,SSE,148,0.0,1.0,84,0.00,,,0.03,Wunderground v.1.15,2013-05-21 02:10:00,
2013-05-20 22:15:00,66.5,61.8,29.99,SSE,148,0.0,1.0,85,0.00,,,0.03,Wunderground v.1.15,2013-05-21 02:15:00,
2013-05-20 22:20:00,66.2,61.6,29.99,SSE,148,0.0,1.0,85,0.00,,,0.03,Wunderground v.1.15,2013-05-21 02:20:00,
2013-05-20 22:25:00,65.9,61.6,29.99,SSE,148,0.0,1.0,86,0.00,,,0.03,Wunderground v.1.15,2013-05-21 02:25:00,
2013-05-20 22:35:00,65.2,61.2,29.99,SSE,148,0.0,1.0,87,0.00,,,0.03,Wunderground v.1.15,2013-05-21 02:35:00,
2013-05-20 22:40:00,65.0,61.4,29.99,SSE,148,0.0,1.0,88,0.00,,,0.03,Wunderground v.1.15,2013-05-21 02:40:00,
2013-05-20 22:45:00,64.8,61.2,29.99,SSE,148,0.0,1.0,88,0.00,,,0.03,Wunderground v.1.15,2013-05-21 02:45:00,
2013-05-20 22:55:00,64.3,61.0,29.99,SSE,148,0.0,1.0,89,0.00,,,0.03,Wunderground v.1.15,2013-05-21 02:55:00,
2013-05-20 23:05:00,63.9,60.9,29.99,SSE,148,0.0,1.0,90,0.00,,,0.03,Wunderground v.1.15,2013-05-21 03:05:00,
2013-05-20 23:10:00,63.7,61.0,29.99,SSE,148,0.0,1.0,91,0.00,,,0.03,Wunderground v.1.15,2013-05-21 03:10:00,
2013-05-20 23:15:00,63.6,60.9,29.99,SSE,148,0.0,1.0,91,0.00,,,0.03,Wunderground v.1.15,2013-05-21 03:15:00,
2013-05-20 23:20:00,63.4,60.7,29.99,SSE,148,0.0,1.0,91,0.00,,,0.03,Wunderground v.1.15,2013-05-21 03:20:00,
2013-05-20 23:25:00,63.2,60.5,29.99,SSE,148,0.0,1.0,91,0.00,,,0.03,Wunderground v.1.15,2013-05-21 03:25:00,
2013-05-20 23:35:00,62.8,60.4,30.00,SSE,148,0.0,1.0,92,0.00,,,0.03,Wunderground v.1.15,2013-05-21 03:35:00,
2013-05-20 23:40:00,62.7,60.3,30.00,SSE,148,0.0,1.0,92,0.00,,,0.03,Wunderground v.1.15,2013-05-21 03:40:00,
2013-05-20 23:45:00,62.6,60.5,29.99,SSE,148,0.0,1.0,93,0.00,,,0.03,Wunderground v.1.15,2013-05-21 03:45:00,
2013-05-20 23:50:00,62.5,60.4,30.00,SSE,148,0.0,1.0,93,0.00,,,0.03,Wunderground v.1.15,2013-05-21 03:50:00,
2013-05-20 23:55:00,62.3,60.2,30.00,SSE,148,0.0,1.0,93,0.00,,,0.03,Wunderground v.1.15,2013-05-21 03:55:00,